Flag for San Marino Weather past 2 weeks in San Marino, San Marino

Now
86 °F

Sunny.


Feels Like: 93 °F
Forecast: 65 / 84 °F
Wind: 12 mph from East

Location: Rimini Airport

Current Time: Jul 5, 2015 at 3:59:32 PM

Latest Report: Jul 5, 2015 at 3:15 PM


Visibility: 10 mi

Pressure: 30.07 "Hg (27.90 "Hg at 666m altitude)

Humidity: 66%

Dew point: 73 °F

Location of San MarinoLocation

Historic Weather in San Marino — Graph

°F

San Marino temperature yesterday

Maximum temperature yesterday: 84 °F (at 9:45 AM)
Minimum temperature yesterday: 70 °F (at 5:15 AM)
Average temperature yesterday: 79 °F

Past Weeks' High & Low Weather Summary

 TemperatureHumidityPressure
High86 °F (Jun 23, 2:45 PM)88% (Jun 24, 1:15 AM)30.24 "Hg (Jun 24, 1:15 AM)
Low57 °F (Jun 25, 5:45 AM)41% (Jun 21, 12:45 PM)29.74 "Hg (Jun 23, 1:45 PM)
Average74 °F68%30.06 "Hg
* Reported Jun 20 2:15 PM — Jul 5 2:15 PM, San Marino, Weather by CustomWeather, © 2015

Note: Actual official high and low records may vary slightly from our data, if they occured in-between our weather recording intervals... More about our weather records

Advertising

San Marino weather history for previous 24 hours

 ConditionsComfort  
Time TempWeatherWind HumidityBarometerVisibility
2:15 PM
Sun, Jul 5
86 °FSunny.10 mph66%30.09 "Hg10 mi
1:45 PM86 °FSunny.10 mph66%30.09 "Hg10 mi
1:15 PM86 °FSunny.8 mph59%30.09 "Hg10 mi
12:45 PM84 °FSunny.10 mph70%30.09 "Hg10 mi
12:15 PM86 °FSunny.7 mph66%30.09 "Hg10 mi
11:45 AM86 °FSunny.7 mph62%30.09 "Hg10 mi
11:15 AM86 °FSunny.5 mph59%30.09 "Hg10 mi
10:45 AM86 °FSunny.2 mph59%30.09 "Hg10 mi
10:15 AM84 °FSunny.No wind66%30.09 "Hg10 mi
9:45 AM82 °FSunny.No wind70%30.09 "Hg10 mi
9:15 AM82 °FSunny.No wind70%30.09 "Hg10 mi
8:45 AM81 °FSunny.No wind70%30.09 "Hg10 mi
8:15 AM79 °FSunny.No wind74%30.09 "Hg10 mi
7:45 AM75 °FSunny.No wind83%30.07 "Hg10 mi
7:15 AM73 °FSunny.No wind83%30.07 "Hg10 mi
6:45 AM72 °FSunny.No wind83%30.07 "Hg10 mi
6:15 AM72 °FClear.No wind83%30.07 "Hg10 mi
5:45 AM72 °FClear.No wind83%30.07 "Hg10 mi
5:15 AM72 °FClear.No wind83%30.07 "Hg10 mi
4:45 AM72 °FClear.No wind83%30.07 "Hg10 mi
4:15 AM72 °FClear.No wind83%30.07 "Hg10 mi
3:45 AM73 °FClear.No wind83%30.09 "Hg10 mi
3:15 AM73 °FClear.No wind83%30.09 "Hg10 mi
2:45 AM73 °FClear.No wind83%30.09 "Hg10 mi
2:15 AM73 °FClear.No wind83%30.09 "Hg10 mi
1:15 AM75 °FClear.1 mph83%30.09 "Hg10 mi
12:45 AM75 °FClear.2 mph83%30.09 "Hg10 mi
12:15 AM75 °FClear.2 mph83%30.09 "Hg10 mi
11:45 PM
Sat, Jul 4
77 °FClear.No wind83%30.09 "Hg10 mi
11:15 PM79 °FClear.3 mph84%30.09 "Hg10 mi
10:45 PM79 °FClear.2 mph79%30.09 "Hg10 mi
10:15 PM81 °FClear.No wind74%30.09 "Hg10 mi
9:45 PM82 °FSunny.No wind70%30.09 "Hg10 mi
9:15 PM82 °FSunny.No wind66%30.09 "Hg10 mi
8:45 PM82 °FSunny.2 mph66%30.09 "Hg10 mi
8:15 PM82 °FSunny.5 mph66%30.09 "Hg10 mi
7:45 PM82 °FSunny.5 mph62%30.09 "Hg10 mi
7:15 PM82 °FSunny.8 mph70%30.09 "Hg10 mi
6:45 PM82 °FSunny.8 mph79%30.09 "Hg10 mi
6:15 PM82 °FSunny.9 mph74%30.12 "Hg10 mi
5:45 PM82 °FSunny.9 mph70%30.12 "Hg10 mi
5:15 PM82 °FSunny.8 mph74%30.12 "Hg10 mi
4:45 PM84 °FSunny.8 mph74%30.12 "Hg10 mi
4:15 PM84 °FSunny.9 mph70%30.12 "Hg10 mi
3:45 PM84 °FSunny.8 mph70%30.15 "Hg10 mi
3:15 PM84 °FSunny.9 mph70%30.15 "Hg10 mi
Weather by CustomWeather, © 2015

See weather overviewHow to use our weather pages